Regional Weather Roundup
Issued by NWS

Home | Current Version | Previous Version | Text Only | Print | Product List | Glossary On
Versions: 1 2 3 4 5 6 7 8 9 10 11 12 13 14 15 16 17 18 19 20 21 22 23 24 25 26 27 28 29 30 31 32 33 34 35 36 37 38 39 40 41 42 43 44 45 46 47 48 49 50
000
ASUS43 KMPX 231110
RWRMN
WEATHER ROUNDUP FOR MINNESOTA
NATIONAL WEATHER SERVICE TWIN CITIES/CHANHASSEN MN
600 AM CDT WED AUG 23 2017


NOTE: "FAIR" INDICATES FEW OR NO CLOUDS BELOW 12,000 FEET WITH NO
SIGNIFICANT WEATHER AND/OR OBSTRUCTIONS TO VISIBILITY. N/A MEANS
CURRENT SKY AND/OR WEATHER CONDITIONS ARE NOT AVAILABLE.

MNZ060>063-068>070-231200-
   Twin Cities Metro

CITY           SKY/WX    TMP DP  RH WIND       PRES   REMARKS
TWIN CITIES    CLEAR     57  49  74 SW5       30.09R
ST PAUL        CLEAR     55  51  86 N8        30.09R
CRYSTAL        CLEAR     54  47  77 NW3       30.07R
BLAINE         CLEAR     52  52 100 CALM      30.08R
LAKEVILLE      CLEAR     52  52 100 W3        30.09R
EDEN PRAIRIE   CLEAR     53  51  93 W5        30.08R
SOUTH ST PAUL  CLEAR     55  50  84 CALM      30.09R
LAKE ELMO      FAIR      50  48  93 CALM      30.09R
$$
MNZ001>005-007-008-013>017-022>024-027-028-231200-
   Northwest Minnesota

CITY           SKY/WX    TMP DP  RH WIND       PRES   REMARKS
BEMIDJI        CLEAR     45  45 100 W3        30.09R
HALLOCK        CLOUDY    46  46 100 CALM      30.09S
ROSEAU         HAZE      45  39  81 CALM      30.09R VSB 1/4
WARROAD        PTCLDY    45  41  87 CALM      30.09R
THIEF RVR FALL FOG       44  44 100 SW3       30.11R VSB 1/2
CROOKSTON      CLEAR     45  43  93 CALM      30.11R
FOSSTON        FOG       41  39  93 CALM      30.11R VSB 1/4
DETROIT LAKES  CLEAR     52  46  82 N3        30.12R
MOORHEAD       CLEAR     46  43  87 CALM      30.11R
PARK RAPIDS    CLEAR     48  43  82 CALM      30.09S
MAHNOMEN       FAIR      45  43  93 SW3       30.10S
$$
MNZ006-009>011-018-025>026-231200-
   North Central Minnesota

CITY           SKY/WX    TMP DP  RH WIND       PRES   REMARKS
BAUDETTE       PTCLDY    45  45 100 SW3       30.08R
FLAG ISLAND      N/A     55  52  88 CALM      30.06S
INTL FALLS     CLOUDY    51  48  89 W3        30.06R
WASKISH        CLEAR     43  43 100 CALM      30.08S FOG
BIG FORK       MOCLDY    41  39  93 CALM      30.07S FOG
LONGVILLE      PTCLDY    46  46 100 CALM      30.08S FOG
GRAND RAPIDS   MOCLDY    50  49  96 CALM      30.09R
CRANE LAKE     CLOUDY    46  46 100 CALM      30.07R
ORR            CLOUDY    52  48  87 CALM      30.04R
COOK           CLOUDY    48  48 100 CALM      30.06R
WALKER         FAIR      47  46  98 CALM      30.10R
$$
MNZ012-019>021-037-231200-
   Northeast Minnesota

CITY           SKY/WX    TMP DP  RH WIND       PRES   REMARKS
DULUTH         PTCLDY    48  48 100 NW6       30.05R
ELY            MOCLDY    50  48  93 CALM      30.04R
HIBBING        MOCLDY    46  46 100 NW3       30.06R
EVELETH        MOCLDY    53  48  83 NW3       30.05S
DULUTH HARBOR  PTCLDY    55  52  88 S5        30.05R
TWO HARBORS    CLEAR     54  48  82 NW7       30.01R
GRAND MARAIS     N/A     49  48  97 VRB3      29.99R
G MARAIS ARPRT CLEAR     46  43  87 NW3       30.00R
$$
MNZ029>031-032-039>041-046>048-054>057-064-231200-
   West Central Minnesota

CITY           SKY/WX    TMP DP  RH WIND       PRES   REMARKS
FERGUS FALLS   CLEAR     50  50 100 CALM      30.11S
WHEATON        CLEAR     50  46  87 CALM      30.13S
MORRIS         CLEAR     50  46  87 CALM      30.10S
ALEXANDRIA     CLEAR     52  49  89 W5        30.12S
ELBOW LAKE     FAIR      47  47  97 CALM      30.11S
WADENA         CLEAR     45  45 100 CALM      30.10S
GLENWOOD       CLEAR     52  48  87 W5        30.11S
APPLETON       CLEAR     48  46  93 W3        30.11S
BENSON         FOG       46  45  93 CALM      30.13R VSB 3/4
ORTONVILLE     CLEAR     52  46  82 MISG      30.11S
MADISON        CLEAR     50  50 100 CALM      30.12S
WILLMAR        FAIR      48  48 100 CALM      30.13S
$$
MNZ033>034-036-042>043-049>051-058-059-231200-
   Central Minnesota

CITY           SKY/WX    TMP DP  RH WIND       PRES   REMARKS
ST CLOUD       CLEAR     48  47  96 CALM      30.09S
SAUK CENTRE    FAIR      49  47  93 CALM      30.11R
PAYNESVILLE    CLEAR     47  47  99 W6        30.11S
AITKIN         FOG       45  43  93 CALM      30.07S VSB 1/2
PINE RIVER     CLEAR     43  39  87 CALM      30.12S
BRAINERD       CLEAR     45  45 100 CALM      30.09S FOG
STAPLES        CLEAR     46  45  93 CALM      30.10R
LONG PRAIRIE   FAIR      46  45  93 CALM      30.11R
LITTLE FALLS   CLEAR     43  43 100 CALM      30.10R FOG
LITCHFIELD     CLEAR     55  52  88 CALM      30.11S
BUFFALO        CLEAR     54  49  83 W3        30.11R
MAPLE LAKE     CLEAR     52  50  93 CALM      30.10S
HUTCHINSON     CLOUDY    50  49  97 CALM      30.12R
$$
MNZ037-044-045-052-053-231200-
   East Central Minnesota

CITY           SKY/WX    TMP DP  RH WIND       PRES   REMARKS
PRINCETON      CLEAR     46  46 100 CALM      30.09R
MORA           CLEAR     48  46  93 CALM      30.10R
CAMBRIDGE      CLEAR     52  46  82 CALM      30.08S
RUSH CITY      PTCLDY    47  46  95 CALM      30.08R
MOOSE LAKE     PTCLDY    46  45  93 CALM      30.06R
HINCKLEY       FAIR      52  50  93 CALM      30.08R
CLOQUET        CLEAR     48  45  87 NW3       30.06R
MCGREGOR       CLEAR     45  45 100 CALM      30.08R
$$
MNZ071>073-080-081-089-090-097-098-231200-
   Southwest Minnesota

CITY           SKY/WX    TMP DP  RH WIND       PRES   REMARKS
MONTEVIDEO     CLEAR     48  45  87 NW5       30.12S
GRANITE FALLS  CLEAR     49  48  95 CALM      30.14R
CANBY          CLEAR     56  48  75 CALM      30.13F
MARSHALL       CLEAR     51  48  89 W3        30.13S
REDWOOD FALLS  CLEAR     51  47  86 W7        30.12R
OLIVIA         CLEAR     50  46  87 W5        30.11S
PIPESTONE      CLEAR     54  48  82 CALM      30.14S
WINDOM         CLEAR     48  46  93 CALM      30.14S
WORTHINGTON    CLEAR     51  47  86 W5        30.15S
JACKSON        CLEAR     50  46  87 CALM      30.15R
TRACY          CLEAR     54  49  84 SW8       30.14S
SLAYTON        CLEAR     49  43  78 W3        30.15F
$$
MNZ065>067-074>077-082>085-091>093-231200-
   South Central Minnesota

CITY           SKY/WX    TMP DP  RH WIND       PRES   REMARKS
MANKATO        CLEAR     52  50  93 W5        30.11S
NEW ULM        CLEAR     48  46  93 W5        30.12R
ST JAMES       CLEAR     50  46  87 SW5       30.13S
FAIRMONT       CLEAR     53  49  86 W6        30.13S
GLENCOE        CLEAR     52  51  97 CALM      30.10R
FARIBAULT      CLEAR     50  48  93 CALM      30.10R
OWATONNA       CLEAR     48  48 100 CALM      30.11R
WASECA         CLEAR     45  45 100 CALM      30.12R
ALBERT LEA     CLEAR     55  52  88 W3        30.12R
$$
MNZ078>079-086>088-094>096-231200-
   Southeast Minnesota

CITY           SKY/WX    TMP DP  RH WIND       PRES   REMARKS
ROCHESTER      CLEAR     50  48  93 W9        30.10R
RED WING       CLEAR     52  48  87 CALM      30.07R
STANTON        CLEAR     50  48  92 CALM      30.09R
DODGE CENTER   CLEAR     50  46  87 W5        30.10R
WINONA         CLEAR     54  52  94 NW3       30.07R
AUSTIN         CLEAR     54  48  82 NW5       30.11R
PRESTON        CLEAR     51  47  86 NW9       30.09S
$$
ABBREVIATIONS USED IN REMARKS
   TC - TEMPERATURES IN CELSIUS
  WCI - WIND CHILL INDEX
   HX - HEAT INDEX
  VSB - VISIBILITY
$$




USA.gov is the U.S. government's official web portal to all federal, state and local government web resources and services.